[[{"header":{"parameterUnit":"m.s-1","parameterCategory":1,"la1":30.2991,"la2":30.254,"lo1":-89.0895,"lo2":-89.0444,"dy":0.0017,"dx":0.0017,"nx":28,"ny":28,"refTime":"2025-07-23T03:00:00:Z","depth":0,"parameterNumber":2,"parameterNumberName":"U-component_of_WINDS"},"data":[0,0,0,0,0,0,0,0,0,0,0,0,0,0,0,0,0,0,0,0,0,0,0,0,0,0,0,0,0,0,0,0,0,0,0,0,0,0,0,0,0,0,0,0,0,0,0,0,0,0,0,0,0,0,0,0,0,0,-0.9969,-0.9972,0,-1.0217,-1.022,-1.0223,-1.0337,-1.0336,-1.0336,-1.0336,-1.0594,-1.0601,-1.0608,0,0,0,0,0,0,0,0,0,0,0,0,0,-0.9596,-0.9602,-0.9969,-0.9972,-0.9975,-1.0217,-1.022,-1.0224,-1.0337,-1.0336,-1.0336,-1.0336,-1.0591,-1.06,-1.0608,0,0,0,0,0,0,0,0,0,0,0,0,0,-0.9792,-0.9604,-0.9968,-1.006,-1.0071,-1.0216,-1.0221,-1.0225,-1.0337,-1.0336,-1.0336,-1.0336,-1.0589,-1.0599,-1.061,-1.0683,0,0,-1.0642,-1.0647,0,0,0,0,0,0,0,0,-0.9781,-0.9806,-1.0044,-1.0054,-1.0067,-1.0246,-1.0184,-1.0378,-1.0337,-1.0236,-1.0336,-1.0335,-1.0478,-1.0498,-1.0546,-1.0695,-1.0706,-1.0643,-1.065,-1.0654,-1.0657,0,0,0,0,0,0,0,-0.9767,-0.9796,-1.0067,-1.0047,-1.0061,-1.0091,-1.0118,-1.0221,-1.0356,-1.0245,-1.0254,-1.0281,-1.0485,-1.0535,-1.0553,-1.071,-1.0643,-1.0652,-1.0659,-1.0663,-1.0933,-1.0934,0,0,0,0,0,0,-0.9738,-0.9784,-1.006,-1.0075,-0.992,-1.0098,-1.0128,-1.0189,-1.0356,-1.0381,-1.0281,-1.0286,-1.0517,-1.054,-1.0562,-1.066,-1.0654,-1.0664,-1.067,-1.0932,-1.0933,-1.0934,0,0,0,0,0,0,-0.973,-0.9762,-1.005,-0.9932,-0.9971,-1.0104,-1.0171,-1.0194,-1.0244,-1.0383,-1.0408,-1.0308,-1.0518,-1.0547,-1.0652,-1.067,-1.0669,-1.0678,-1.0931,-1.0932,-1.0933,-1.0854,0,0,0,0,0,0,-0.9719,-0.9758,-0.9786,-0.9932,-0.9977,-1.0134,-1.0172,-1.0199,-1.0262,-1.027,-1.0415,-1.0438,-1.052,-1.0635,-1.0662,-1.0685,-1.0687,-1.093,-1.0932,-1.0933,-1.0856,-1.0853,-1.085,0,0,0,0,0,-0.9705,-0.9755,-0.9787,-0.982,-1.0015,-1.0135,-1.0161,-1.0252,-1.0263,-1.0293,-1.0382,-1.0434,-1.0663,-1.0645,-1.0677,-1.0702,-1.0929,-1.0931,-1.0933,-1.0857,-1.0853,-1.085,0,0,0,0,0,0,-0.961,-0.9776,-0.9813,-0.9912,-1.0008,-1.0153,-1.0195,-1.0245,-1.0341,-1.0345,-1.0455,-1.0487,-1.0582,-1.0653,-1.063,-1.0783,-1.0801,-1.0809,-1.0733,-1.073,-1.0727,-1.0709,-1.0696,0,0,0,0,0,-0.96,-0.9682,-0.9823,-0.9897,-0.9943,-1.006,-1.0116,-1.0178,-1.0283,-1.0324,-1.0421,-1.0522,-1.0617,-1.0678,-1.0773,-1.0866,-1.09,-1.09,-1.0897,-1.0893,-1.09,-1.0955,-1.0957,-1.094,-1.0939,-1.0939,0,0,-0.9581,-0.9682,-0.9727,-0.988,-0.9962,-1.0046,-1.0094,-1.018,-1.0244,-1.0338,-1.0443,-1.0517,-1.0637,-1.0737,-1.0785,-1.0799,-1.0912,-1.0896,-1.0892,-1.09,-1.0957,-1.0959,-1.096,-1.0941,-1.094,-1.094,0,0,-0.959,-0.9674,-0.9744,-0.9825,-0.9948,-1.0026,-1.0042,-1.018,-1.0233,-1.0339,-1.0412,-1.049,-1.0651,-1.0734,-1.0797,-1.0836,-1.0887,-1.0864,-1.0848,-1.0901,-1.0903,-1.0904,-1.0919,-1.0923,-1.0869,-1.0869,-1.0869,0,-0.9551,-0.9679,-0.9774,-0.9857,-0.9923,-1.001,-1.0083,-1.0157,-1.0305,-1.0349,-1.0361,-1.0565,-1.0652,-1.0772,-1.0782,-1.083,-1.0853,-1.0848,-1.0894,-1.0897,-1.09,-1.0916,-1.0921,-1.0865,-1.0866,-1.0866,-1.0867,0,-0.9626,-0.9714,-0.9756,-0.9896,-0.9966,-1.0043,-1.0151,-1.0211,-1.0266,-1.0343,-1.0451,-1.0558,-1.0676,-1.0709,-1.0765,-1.0838,-1.0842,-1.0873,-1.0894,-1.0897,-1.0913,-1.092,-1.086,-1.0862,-1.0863,-1.0864,0,0,-0.9583,-0.9773,-0.9787,-0.9852,-0.9993,-1.0064,-1.0145,-1.026,-1.0309,-1.0409,-1.0481,-1.0615,-1.0644,-1.0715,-1.0781,-1.0827,-1.0853,-1.0853,-1.0858,-1.085,-1.094,-1.0917,-1.0922,-1.0887,-1.0888,-1.089,-1.0931,0,-0.9612,-0.976,-0.9848,-0.9961,-1.0044,-1.0128,-1.0199,-1.0295,-1.0368,-1.045,-1.0532,-1.0625,-1.0656,-1.07,-1.075,-1.0839,-1.0872,-1.0837,-1.0956,-1.0959,-1.0924,-1.0931,-1.0906,-1.094,-1.0937,-1.0939,-1.094,0,-0.9665,-0.9761,-0.9882,-1.0015,-1.0053,-1.0115,-1.0227,-1.0304,-1.0414,-1.0465,-1.0544,-1.061,-1.07,-1.0713,-1.084,-1.0814,-1.0868,-1.0919,-1.0923,-1.0938,-1.095,-1.0947,-1.0953,-1.0958,-1.095,-1.095,-1.0949,0,-0.9622,-0.9782,-0.9875,-0.9927,-1.0084,-1.0126,-1.0194,-1.0303,-1.0366,-1.0465,-1.0507,-1.0615,-1.0675,-1.0757,-1.0851,-1.0852,-1.0969,-1.099,-1.1015,-1.1012,-1.1037,-1.1034,-1.1052,-1.1069,-1.1069,-1.1069,-1.1069,0,-0.9646,-0.9717,-0.9858,-0.9915,-0.9997,-1.0098,-1.0177,-1.0251,-1.0348,-1.0422,-1.0502,-1.057,-1.0689,-1.0773,-1.0847,-1.0941,-1.0967,-1.1011,-1.103,-1.1005,-1.0999,-1.1043,-1.1043,-1.1071,-1.107,-1.107,-1.107,0,-0.9612,-0.9709,-0.9816,-0.9955,-0.9992,-1.0046,-1.0166,-1.0226,-1.0303,-1.0396,-1.0424,-1.0546,-1.0648,-1.0749,-1.0887,-1.0937,-1.1031,-1.1056,-1.0993,-1.1003,-1.1023,-1.102,-1.107,-1.1082,-1.109,-1.109,-1.1089,0,-0.9621,-0.9677,-0.9822,-0.9876,-0.9942,-1.0029,-1.0094,-1.0195,-1.0259,-1.0389,-1.0433,-1.054,-1.0632,-1.0792,-1.0894,-1.1,-1.1029,-1.1039,-1.1045,-1.1018,-1.103,-1.1025,-1.1032,-1.1036,-1.1035,-1.1035,-1.1034,0,-0.9627,-0.9672,-0.9761,-0.9867,-0.9942,-1.0031,-1.0123,-1.0163,-1.0282,-1.0351,-1.0455,-1.0526,-1.0666,-1.0773,-1.0891,-1.0962,-1.1019,-1.1031,-1.1043,-1.1018,-1.0979,-1.1001,-1.0985,-1.103,-1.103,-1.1031,-1.1031,-1.1031,-0.9616,-0.967,-0.978,-0.9877,-0.9956,-1.004,-1.0102,-1.0187,-1.0275,-1.0396,-1.0451,-1.0557,-1.0666,-1.083,-1.09,-1.0985,-1.1,-1.1017,-1.1021,-1.1024,-1.1018,-1.0964,-1.1007,-1.1007,-1.1008,-1.1008,-1.1008,0,-0.9626,-0.9701,-0.9789,-0.9914,-0.999,-1.0035,-1.0139,-1.02,-1.0292,-1.0388,-1.0476,-1.0597,-1.0701,-1.081,-1.092,-1.0967,-1.0996,-1.0993,-1.0991,-1.1007,-1.0998,-1.0978,-1.0968,-1.0968,-1.0968,-1.0968,-1.0968,-1.0968,-0.9641,-0.9735,-0.9792,-0.9927,-1.0002,-1.0105,-1.016,-1.0238,-1.0316,-1.0446,-1.0532,-1.0602,-1.0705,-1.0823,-1.092,-1.095,-1.0987,-1.0977,-1.1014,-1.1004,-1.1007,-1.101,-1.0991,-1.0984,-1.0984,-1.1015,-1.1016,-1.1016]},{"header":{"parameterUnit":"m.s-1","parameterCategory":1,"la1":30.2991,"la2":30.254,"lo1":-89.0895,"lo2":-89.0444,"dy":0.0017,"dx":0.0017,"nx":28,"ny":28,"refTime":"2025-07-23T03:00:00:Z","depth":0,"parameterNumber":3,"parameterNumberName":"V-component_of_WINDS"},"data":[0,0,0,0,0,0,0,0,0,0,0,0,0,0,0,0,0,0,0,0,0,0,0,0,0,0,0,0,0,0,0,0,0,0,0,0,0,0,0,0,0,0,0,0,0,0,0,0,0,0,0,0,0,0,0,0,0,0,-1.2099,-1.2101,0,-1.2215,-1.2217,-1.2218,-1.2257,-1.2257,-1.2256,-1.2256,-1.2372,-1.2376,-1.2379,0,0,0,0,0,0,0,0,0,0,0,0,0,-1.1911,-1.1914,-1.2099,-1.2101,-1.2102,-1.2215,-1.2217,-1.2218,-1.2257,-1.2257,-1.2256,-1.2256,-1.2371,-1.2375,-1.238,0,0,0,0,0,0,0,0,0,0,0,0,0,-1.2006,-1.1915,-1.2099,-1.2135,-1.214,-1.2215,-1.2217,-1.2219,-1.2257,-1.2257,-1.2256,-1.2255,-1.237,-1.2375,-1.238,-1.2427,0,0,-1.2396,-1.2399,0,0,0,0,0,0,0,0,-1.2001,-1.2013,-1.2129,-1.2133,-1.2138,-1.2221,-1.2193,-1.2288,-1.2258,-1.2213,-1.2256,-1.2255,-1.2322,-1.2332,-1.2355,-1.2432,-1.2437,-1.2397,-1.24,-1.2402,-1.2404,0,0,0,0,0,0,0,-1.1994,-1.2008,-1.2145,-1.213,-1.2136,-1.2146,-1.2158,-1.2211,-1.227,-1.2217,-1.222,-1.2233,-1.2325,-1.235,-1.2358,-1.2439,-1.2397,-1.2401,-1.2405,-1.2407,-1.2561,-1.2562,0,0,0,0,0,0,-1.1982,-1.2003,-1.2141,-1.2149,-1.2066,-1.2149,-1.2164,-1.2195,-1.227,-1.228,-1.2233,-1.2234,-1.2341,-1.2352,-1.2362,-1.2422,-1.2402,-1.2407,-1.241,-1.256,-1.2561,-1.2562,0,0,0,0,0,0,-1.1977,-1.1994,-1.2137,-1.2077,-1.2096,-1.2154,-1.2188,-1.2198,-1.2223,-1.2282,-1.2293,-1.2248,-1.2341,-1.2355,-1.2411,-1.2427,-1.241,-1.2414,-1.2559,-1.2561,-1.2562,-1.2542,0,0,0,0,0,0,-1.1972,-1.1992,-1.201,-1.2077,-1.2099,-1.2184,-1.2189,-1.2201,-1.2232,-1.2234,-1.2299,-1.2309,-1.2341,-1.2403,-1.2416,-1.2434,-1.2419,-1.2558,-1.256,-1.2562,-1.2541,-1.2542,-1.2543,0,0,0,0,0,-1.1965,-1.1999,-1.2011,-1.2028,-1.2123,-1.2185,-1.2197,-1.2234,-1.2233,-1.2252,-1.2291,-1.2307,-1.2423,-1.2408,-1.2423,-1.2443,-1.2557,-1.2559,-1.2561,-1.2541,-1.2542,-1.2543,0,0,0,0,0,0,-1.1932,-1.2009,-1.2022,-1.208,-1.2125,-1.2191,-1.2216,-1.2234,-1.2281,-1.2281,-1.2325,-1.2339,-1.2392,-1.2423,-1.2405,-1.2492,-1.2491,-1.2496,-1.247,-1.2472,-1.2473,-1.2464,-1.2423,0,0,0,0,0,-1.1932,-1.1976,-1.204,-1.2084,-1.2107,-1.2158,-1.2186,-1.2211,-1.226,-1.2279,-1.2322,-1.2368,-1.2415,-1.2445,-1.2492,-1.2546,-1.2561,-1.2567,-1.2568,-1.2569,-1.2572,-1.2604,-1.2608,-1.2569,-1.2569,-1.2569,0,0,-1.1931,-1.1978,-1.2003,-1.2079,-1.2118,-1.2162,-1.2173,-1.222,-1.2253,-1.2286,-1.2342,-1.2375,-1.243,-1.2485,-1.2512,-1.2513,-1.2586,-1.2571,-1.2571,-1.2575,-1.2606,-1.261,-1.2613,-1.2571,-1.2571,-1.257,0,0,-1.1953,-1.1993,-1.2034,-1.2073,-1.2132,-1.2165,-1.2175,-1.2239,-1.2262,-1.2319,-1.2345,-1.2385,-1.2465,-1.2503,-1.2533,-1.2571,-1.2587,-1.2585,-1.2589,-1.2619,-1.2622,-1.2625,-1.2639,-1.2643,-1.2588,-1.2588,-1.2588,0,-1.1944,-1.2013,-1.2053,-1.2099,-1.2131,-1.2164,-1.2206,-1.2242,-1.2312,-1.2334,-1.2334,-1.2436,-1.2475,-1.254,-1.255,-1.2573,-1.2585,-1.2577,-1.2619,-1.2622,-1.2625,-1.2639,-1.2644,-1.2587,-1.2588,-1.2588,-1.2588,0,-1.1999,-1.2047,-1.2073,-1.2141,-1.2177,-1.2221,-1.2267,-1.2299,-1.2321,-1.2354,-1.2412,-1.2461,-1.2518,-1.2535,-1.2557,-1.2604,-1.2603,-1.261,-1.261,-1.2628,-1.2641,-1.2646,-1.2586,-1.2587,-1.2587,-1.2587,0,0,-1.2002,-1.2094,-1.2103,-1.2134,-1.2202,-1.2239,-1.2284,-1.2341,-1.2367,-1.2415,-1.2454,-1.2522,-1.253,-1.2563,-1.259,-1.2616,-1.2643,-1.2621,-1.2623,-1.2623,-1.2698,-1.2692,-1.2697,-1.2655,-1.2656,-1.2657,-1.2694,0,-1.2033,-1.2115,-1.2154,-1.2219,-1.2264,-1.2296,-1.2336,-1.2381,-1.2414,-1.2456,-1.2492,-1.254,-1.2546,-1.2567,-1.2595,-1.2634,-1.2659,-1.2632,-1.2691,-1.2693,-1.2676,-1.2704,-1.2697,-1.2729,-1.2699,-1.27,-1.2701,0,-1.2079,-1.2127,-1.2198,-1.2261,-1.2281,-1.2316,-1.2372,-1.2412,-1.2464,-1.2486,-1.2525,-1.255,-1.2599,-1.2596,-1.2663,-1.2644,-1.2671,-1.2694,-1.2696,-1.2703,-1.2697,-1.2711,-1.2741,-1.2745,-1.2709,-1.2708,-1.2708,0,-1.2074,-1.2157,-1.221,-1.2236,-1.2311,-1.2335,-1.2367,-1.242,-1.2452,-1.25,-1.2522,-1.2575,-1.2604,-1.2644,-1.2684,-1.2678,-1.2748,-1.2747,-1.2767,-1.2766,-1.278,-1.2778,-1.2814,-1.2797,-1.2797,-1.2797,-1.2797,0,-1.2103,-1.2145,-1.2209,-1.2241,-1.2289,-1.2333,-1.2379,-1.2414,-1.246,-1.25,-1.2531,-1.2567,-1.2617,-1.266,-1.2691,-1.2743,-1.2756,-1.2775,-1.2782,-1.2772,-1.2769,-1.2789,-1.2788,-1.2799,-1.2798,-1.2798,-1.2798,0,-1.2105,-1.215,-1.221,-1.2277,-1.2295,-1.2327,-1.2384,-1.2417,-1.2452,-1.2502,-1.2516,-1.257,-1.2623,-1.2666,-1.2734,-1.2755,-1.2809,-1.2818,-1.2791,-1.2795,-1.2812,-1.281,-1.2861,-1.2871,-1.2848,-1.2848,-1.2848,0,-1.2121,-1.2154,-1.2225,-1.2254,-1.2286,-1.2333,-1.2366,-1.241,-1.2444,-1.2507,-1.2532,-1.2587,-1.2633,-1.2715,-1.276,-1.2812,-1.2823,-1.2837,-1.2831,-1.2819,-1.2823,-1.2821,-1.2824,-1.2837,-1.2838,-1.2838,-1.2838,0,-1.2144,-1.2165,-1.2212,-1.2267,-1.2306,-1.2351,-1.2398,-1.242,-1.2473,-1.2509,-1.2563,-1.2599,-1.2669,-1.2723,-1.2781,-1.2814,-1.2834,-1.284,-1.2847,-1.2836,-1.2819,-1.2829,-1.2792,-1.2838,-1.2838,-1.2838,-1.2838,-1.2838,-1.2153,-1.2184,-1.2239,-1.2291,-1.2331,-1.2373,-1.2408,-1.2448,-1.2494,-1.2555,-1.2579,-1.2634,-1.2687,-1.2766,-1.28,-1.2844,-1.2846,-1.2857,-1.2859,-1.2861,-1.286,-1.2813,-1.2854,-1.2854,-1.2854,-1.2854,-1.2854,0,-1.2177,-1.2215,-1.2262,-1.2326,-1.2367,-1.2384,-1.2437,-1.2469,-1.2518,-1.2566,-1.2611,-1.2674,-1.2726,-1.2776,-1.2832,-1.2857,-1.2868,-1.287,-1.2868,-1.2876,-1.2854,-1.2842,-1.286,-1.286,-1.286,-1.286,-1.286,-1.286,-1.2195,-1.2249,-1.2276,-1.235,-1.2387,-1.2443,-1.2471,-1.2511,-1.2549,-1.2618,-1.2662,-1.2695,-1.2744,-1.2803,-1.2852,-1.2866,-1.2884,-1.2884,-1.2899,-1.2878,-1.2877,-1.2876,-1.2865,-1.2887,-1.2887,-1.2917,-1.2918,-1.2918]}]]